Location: Siratepeler Tepesi
(39.1042°N, 32.0781°E)
Time: 05:31:27
(UTC+00:00)

PAYLOAD B - Pass Details

Date: 11 April 2026
Orbit: 848 x 870 km, 99.0° (Epoch: 9 May)

Event Time Altitude Azimuth Distance (km) Brightness Sun altitude
Exits shadow 17:51:42 21° 149° (SSE) 1,827 5.5 -16.7°
Maximum altitude 17:55:24 65° 73° (ENE) 934 4.2 -17.3°
Drops below altitude 10° 18:00:50 10° 353° (N) 2,480 7.1 -18.3°
Sets 18:03:13 0° 350° (N) 3,419 7.9 -18.7°
